Location: Leipzig
(51.3203°N, 12.3761°E)
Time: 07:22:30
(UTC+01:00)

ISS - Pass Details

Date: 05 December 2021
Orbit: 413 x 422 km, 51.6° (Epoch: 22 January)

Event Time Altitude Azimuth Distance (km) Brightness Sun altitude
Rises 17:03:02 0° 283° (WNW) 2,387 1.0 -8.8°
Reaches altitude 10° 17:05:09 10° 280° (W) 1,518 0.0 -9.1°
Maximum altitude 17:08:32 60° 200° (SSW) 488 -3.2 -9.6°
Drops below altitude 10° 17:11:52 10° 119° (ESE) 1,508 -1.3 -10.1°
Enters shadow 17:12:54 - 117° (ESE) 1,927 -0.8 -10.2°
